Regional Weather Roundup
Issued by NWS

Home | Current Version | Previous Version | Text Only | Print | Product List | Glossary Off
Versions: 1 2 3 4 5 6 7 8 9 10 11 12 13 14 15 16 17 18 19 20 21 22 23 24 25 26 27 28 29 30 31 32 33 34 35 36 37 38 39 40 41 42 43 44 45 46 47 48 49 50

000
ASUS43 KDTX 240010
RWRMI
MICHIGAN HOURLY REGIONAL WEATHER ROUNDUP
NATIONAL WEATHER SERVICE DETROIT/PONTIAC MI
800 PM EDT SAT JUL 23 2016

NOTE: "FAIR" INDICATES FEW OR NO CLOUDS BELOW 12,000 FEET WITH NO
SIGNIFICANT WEATHER AND/OR OBSTRUCTION TO VISIBILITY.

MIZ047>049-052>055-059>063-066>070-074>076-081>083-240100-
SOUTHEAST LOWER MICHIGAN

CITY           SKY/WX    TMP DP  RH WIND       PRES   REMARKS
ADRIAN         MOSUNNY   87  70  56 SW5       29.96R HX  92
6HR MIN TEMP:  87; 6HR MAX TEMP:  93;

ALMA           MOSUNNY   87  71  58 CALM      29.96S HX  92
ANN ARBOR      PTCLDY    89  64  43 N6        29.94S HX  90
BAD AXE        MOCLDY    79  58  48 E5        29.98S
6HR MIN TEMP:  79; 6HR MAX TEMP:  89;

CARO           MOSUNNY   83  65  54 SE3       29.96S
DETROIT CITY   PTCLDY    85  64  49 E8        29.95S
6HR MIN TEMP:  85; 6HR MAX TEMP:  94;

DETROIT        PTCLDY    89  60  37 SE5       29.94S
6HR MIN TEMP:  89; 6HR MAX TEMP:  98;

FLINT          SUNNY     91  56  30 NE7       29.96S
6HR MIN TEMP:  90; 6HR MAX TEMP:  98;

GROSSE ILE     CLEAR     85  65  50 SE3       29.93S
6HR MIN TEMP:  84; 6HR MAX TEMP:  88;

HOWELL         SUNNY     87  56  34 CALM      29.96F
6HR MIN TEMP:  87; 6HR MAX TEMP:  94;


CITY           SKY/WX    TMP DP  RH WIND       PRES   REMARKS
JACKSON        MOSUNNY   86  68  54 N3        29.96F
6HR MIN TEMP:  86; 6HR MAX TEMP:  91;

LAMBERTVILLE   CLEAR     86  70  58 CALM      29.95S HX  91
6HR MIN TEMP:  86; 6HR MAX TEMP:  94;

LANSING        PTSUNNY   88  64  44 CALM      29.96F
6HR MIN TEMP:  88; 6HR MAX TEMP:  94;

LAPEER         FAIR      82  63  52 E3        29.98S
6HR MIN TEMP:  82; 6HR MAX TEMP:  92;

MASON          CLOUDY    87  65  48 CALM      29.96S
MONROE         CLEAR     86  68  54 S6        29.93S
MT. CLEMENS    MOCLDY    83  64  50 E7        29.94S
6HR MIN TEMP:  83; 6HR MAX TEMP:  90;

PONTIAC        CLOUDY    87  61  41 NE7       29.96S
6HR MIN TEMP:  87; 6HR MAX TEMP:  93;

PORT HOPE        N/A     79  62  56 E7        29.97R
6HR MIN TEMP:  76; 6HR MAX TEMP:  79;

PORT HURON     PTCLDY    77  64  65 N6        29.97S
TRI CITIES     MOSUNNY   87  62  43 CALM      29.96S
6HR MIN TEMP:  85; 6HR MAX TEMP:  91;

MIDLAND        FAIR      87  61  41 SE3       29.94F
6HR MIN TEMP:  87; 6HR MAX TEMP:  92;

TROY           CLEAR     90  58  34 E9        29.97S
SAGINAW HB     MOSUNNY   86  59  39 CALM      29.96S
$$
MIZ043>046-050>051-056>058-064>065-071>073-077>080-240100-
SOUTHWEST LOWER MICHIGAN

CITY           SKY/WX    TMP DP  RH WIND       PRES   REMARKS
BATTLE CREEK   MOSUNNY   83  68  60 SW5       29.98S
6HR MIN TEMP:  83; 6HR MAX TEMP:  88;

BENTON HARBOR  CLOUDY    82  71  69 VRB3      29.96R
6HR MIN TEMP:  82; 6HR MAX TEMP:  90;

BIG RAPIDS     MOSUNNY   81  74  79 CALM      29.97S
6HR MIN TEMP:  81; 6HR MAX TEMP:  91;

COLDWATER      CLOUDY    82  76  79 CALM      29.96S HX  90
6HR MIN TEMP:  82; 6HR MAX TEMP:  90;

FREMONT        FAIR      83  74  76 CALM      29.95F
HOLLAND        PTSUNNY   82  71  69 CALM      29.97S
6HR MIN TEMP:  82; 6HR MAX TEMP:  92;

GRAND RAPIDS   CLOUDY    87  67  51 N5        29.96S HX  90
6HR MIN TEMP:  87; 6HR MAX TEMP:  92;

IONIA          FAIR      82  71  70 CALM      29.95S
6HR MIN TEMP:  82; 6HR MAX TEMP:  92;

KALAMAZOO      PTSUNNY   85  64  49 SE3       29.96S
6HR MIN TEMP:  85; 6HR MAX TEMP:  93;

LUDINGTON      PTSUNNY   78  68  69 SE3       29.92F
6HR MIN TEMP:  78; 6HR MAX TEMP:  89;

MARSHALL       CLOUDY    86  68  54 SW3       29.96S
6HR MIN TEMP:  85; 6HR MAX TEMP:  92;

MOUNT PLEASANT MOSUNNY   89  62  40 S3        29.95S
6HR MIN TEMP:  89; 6HR MAX TEMP:  94;

MUSKEGON       CLOUDY    83  72  69 CALM      29.95F
6HR MIN TEMP:  83; 6HR MAX TEMP:  89;

SOUTH HAVEN    CLOUDY    82  71  68 CALM      29.97R
$$
MIZ016>042-240100-
NORTHERN LOWER MICHIGAN

CITY           SKY/WX    TMP DP  RH WIND       PRES   REMARKS
ALPENA         PTSUNNY   80  60  50 S8        29.98R
6HR MIN TEMP:  80; 6HR MAX TEMP:  92;

BEAVER ISLAND  MOSUNNY   78  67  69 CALM      29.95S
6HR MIN TEMP:  78; 6HR MAX TEMP:  87;

BELLAIRE       MOSUNNY   79  70  72 CALM      29.95S
6HR MIN TEMP:  79; 6HR MAX TEMP:  90;

CADILLAC       MOSUNNY   82  62  50 W5        29.99R
CHARLEVOIX     MOSUNNY   80  63  56 CALM      29.98S
FRANKFORT      PTSUNNY   80  65  61 CALM      29.93F
GAYLORD        MOSUNNY   85  57  38 CALM      29.99S
6HR MIN TEMP:  85; 6HR MAX TEMP:  89;

GRAYLING       PTSUNNY   85  60  43 CALM      29.99R
6HR MIN TEMP:  85; 6HR MAX TEMP:  92;

HARBOR SPRINGS SUNNY     79  69  72 CALM      29.95S
HOUGHTON LAKE  CLOUDY    84  62  47 CALM      29.98S
6HR MIN TEMP:  84; 6HR MAX TEMP:  90;

MANISTEE       CLOUDY    79  65  62 SE3       29.93F
OSCODA         MOSUNNY   79  55  44 E7        29.97F
6HR MIN TEMP:  79; 6HR MAX TEMP:  87;

PELLSTON       MOSUNNY   85  59  41 N5        29.96S
6HR MIN TEMP:  84; 6HR MAX TEMP:  90;

ROGERS CITY    MOSUNNY   78  60  53 E3        29.97S
TRAVERSE CITY  CLOUDY    82  66  58 E3        29.93S
6HR MIN TEMP:  82; 6HR MAX TEMP:  90;

$$
MIZ007>008-015-240100-
EASTERN UPPER MICHIGAN

CITY           SKY/WX    TMP DP  RH WIND       PRES   REMARKS
KINROSS        CLOUDY    81  63  54 NW5       29.97R
6HR MIN TEMP:  81; 6HR MAX TEMP:  88;

MACKINAC ISLAN CLOUDY    78  60  53 CALM      29.96S
6HR MIN TEMP:  78; 6HR MAX TEMP:  85;

NEWBERRY       CLOUDY    78  66  66 CALM      29.96S HAZE
6HR MIN TEMP:  78; 6HR MAX TEMP:  88;

S. S. MARIE    CLOUDY    81  61  50 CALM      29.95R
6HR MIN TEMP:  81; 6HR MAX TEMP:  87;

MUNISING         N/A     71  65  81 CALM      29.93F
6HR MIN TEMP:  71; 6HR MAX TEMP:  77;

$$
MIZ004>006-011>014-085-240100-
CENTRAL UPPER MICHIGAN

CITY           SKY/WX    TMP DP  RH WIND       PRES   REMARKS
MANISTIQUE     MOSUNNY   74  64  70 CALM      29.94F
6HR MIN TEMP:  74; 6HR MAX TEMP:  82;

ESCANABA       PTSUNNY   75  64  69 SE5       29.91F
6HR MIN TEMP:  75; 6HR MAX TEMP:  81;

MENOMINEE      PTSUNNY   79  67  66 SE7       29.91F
6HR MIN TEMP:  78; 6HR MAX TEMP:  84;

SAWYER-GWINN   SUNNY     79  59  50 S9        29.94F
$$
MIZ001>003-009>011-084-240100-
WESTERN UPPER MICHIGAN

CITY           SKY/WX    TMP DP  RH WIND       PRES   REMARKS
IRON MOUNTAIN  CLOUDY    79  63  57 SE7       29.91F
6HR MIN TEMP:  79; 6HR MAX TEMP:  89;

HOUGHTON       CLOUDY    70  58  65 E10       29.91F
6HR MIN TEMP:  70; 6HR MAX TEMP:  78;

COPPER HARBOR    N/A     74  59  59 VRB5      29.91F
6HR MIN TEMP:  69; 6HR MAX TEMP:  79;

IRONWOOD       CLOUDY    77  72  83 CALM      29.85F
6HR MIN TEMP:  77; 6HR MAX TEMP:  84;

$$

ABBREVIATIONS USED IN REMARKS
   TC - TEMPERATURE IN CELSIUS
  WCI - WIND CHILL INDEX
   HX - HEAT INDEX
  VSB - VISIBILITY





USA.gov is the U.S. government's official web portal to all federal, state and local government web resources and services.